Location: Munkebjergskolens Observatorium
(55.3864°N, 10.3987°E)
Time: 03:06:27
(UTC+02:00)

CAS-6 - Pass Details

Date: 30 March 2023
Orbit: 610 x 632 km, 97.9° (Epoch: 31 May)

Event Time Altitude Azimuth Distance (km) Brightness Sun altitude
Exits shadow 21:24:24 11° 73° (ENE) 1,925 ? -13.3°
Maximum altitude 21:26:03 13° 50° (NE) 1,792 ? -13.5°
Drops below altitude 10° 21:28:07 10° 21° (NNE) 2,011 ? -13.8°
Sets 21:31:22 0° 355° (N) 2,929 ? -14.2°
